Date String (YYYY-MM-DD hh:mm:ss) UTC,Instrument flags,absolute air pressure of the measurement (hPa),sample flow rate (lpm),inlet stack bypass flow (lpm),air temperature of the measurement (°C),ambient temperature measured by the external sensor (°C),aerosol sample conditioner tube jacket temperature (°C),OPC LED temperature (°C),internal box temperature (°C),relative humidity of the measurement (%),span deviation,mass concentration of particles derived from Lorenz-Mie calculation of OPC scattering (μg/m³),mass concentration of particles derived from Lorenz-Mie calculation of OPC scattering (μg/m³),mass concentration of particles derived from Lorenz-Mie calculation of OPC scattering (μg/m³)
DateTimeUTC,F1_M11,P_M11,Q1_M11,Q2_M11,T1_M11,T2_M11,T3_M11,T4_M11,T5_M11,U1_M11,ZSPAN_M11,X2_M11,X0_M11,X1_M11
2024-02-07 08:00:00,SystemResetWarning,0816.1,4.99,000.00,021.2,020.4,000.0,029.6,022.9,17.2,0000.0,0004.00,0007.65,0003.76
2024-02-07 08:01:00,SystemResetWarning,0816.0,5.00,000.00,021.2,020.4,000.0,029.6,022.9,17.2,0000.0,0003.94,0006.81,0003.71
2024-02-07 08:02:00,SystemResetWarning,0816.0,5.01,000.00,021.2,020.4,000.0,029.6,022.9,17.2,0000.0,0003.89,0006.69,0003.67
2024-02-07 08:03:00,SystemResetWarning,0816.0,5.01,000.00,021.2,020.4,000.0,029.6,022.9,17.2,0000.0,0003.88,0006.71,0003.65
2024-02-07 08:04:00,SystemResetWarning,0816.0,5.00,000.00,021.2,020.4,000.0,029.6,022.9,17.2,0000.0,0003.85,0005.90,0003.64
2024-02-07 08:05:00,SystemResetWarning,0816.0,5.00,000.00,021.1,020.4,000.0,029.6,022.9,17.2,0000.0,0003.84,0005.59,0003.63
2024-02-07 08:06:00,SystemResetWarning,0816.0,5.00,000.00,021.1,020.4,000.0,029.6,022.9,17.2,0000.0,0003.83,0006.39,0003.62
2024-02-07 08:07:00,SystemResetWarning,0816.0,4.98,000.00,021.1,020.4,000.0,029.6,022.9,17.3,0000.0,0003.82,0006.36,0003.62
2024-02-07 08:08:00,SystemResetWarning,0815.9,4.99,000.00,021.1,020.4,000.0,029.6,022.8,17.3,0000.0,0003.84,0006.52,0003.64
2024-02-07 08:09:00,SystemResetWarning,0815.8,5.01,000.00,021.1,020.4,000.0,029.6,022.8,17.3,0000.0,0003.84,0006.54,0003.65
2024-02-07 08:10:00,SystemResetWarning,0815.8,5.01,000.00,021.1,020.4,000.0,029.6,022.8,17.4,0000.0,0003.82,0006.49,0003.63
2024-02-07 08:11:00,SystemResetWarning,0815.8,5.00,000.00,021.1,020.3,000.0,029.6,022.8,17.4,0000.0,0003.84,0006.48,0003.65
2024-02-07 08:12:00,SystemResetWarning,0815.8,5.00,000.00,021.1,020.3,000.0,029.5,022.8,17.4,0000.0,0003.87,0006.73,0003.67
2024-02-07 08:13:00,SystemResetWarning,0815.8,5.00,000.00,021.1,020.4,000.0,029.5,022.8,17.4,0000.0,0003.91,0007.42,0003.69
2024-02-07 08:14:00,SystemResetWarning,0815.8,5.00,000.00,021.1,020.3,000.0,029.5,022.8,17.3,0000.0,0003.94,0007.75,0003.70
2024-02-07 08:15:00,SystemResetWarning,0815.8,5.00,000.00,021.1,020.3,000.0,029.5,022.8,17.3,0000.0,0003.97,0008.02,0003.72
2024-02-07 08:16:00,SystemResetWarning,0815.8,4.99,000.00,021.0,020.3,000.0,029.5,022.7,17.3,0000.0,0004.02,0007.98,0003.75
2024-02-07 08:17:00,SystemResetWarning,0815.8,5.00,000.00,021.0,020.3,000.0,029.5,022.7,17.3,0000.0,0004.03,0007.53,0003.76
2024-02-07 08:18:00,SystemResetWarning,0815.8,5.00,000.00,021.0,020.3,000.0,029.5,022.7,17.3,0000.0,0004.02,0007.55,0003.74
2024-02-07 08:19:00,SystemResetWarning,0815.8,5.01,000.00,021.0,020.2,000.0,029.5,022.7,17.3,0000.0,0004.04,0007.89,0003.73
2024-02-07 08:20:00,SystemResetWarning,0815.7,5.01,000.00,021.0,020.2,000.0,029.5,022.7,17.4,0000.0,0004.03,0008.44,0003.71
2024-02-07 08:21:00,SystemResetWarning,0815.8,5.00,000.00,021.0,020.2,000.0,029.5,022.7,17.4,0000.0,0004.06,0008.52,0003.73
2024-02-07 08:22:00,SystemResetWarning,0815.8,5.00,000.00,021.0,020.2,000.0,029.4,022.7,17.4,0000.0,0004.07,0008.56,0003.73
2024-02-07 08:23:00,SystemResetWarning,0815.8,4.98,000.00,021.0,020.2,000.0,029.4,022.7,17.5,0000.0,0004.03,0008.32,0003.71
2024-02-07 08:24:00,SystemResetWarning,0815.8,5.00,000.00,021.0,020.2,000.0,029.4,022.7,17.5,0000.0,0004.01,0007.92,0003.70
2024-02-07 08:25:00,SystemResetWarning,0815.8,5.00,000.00,020.9,020.2,000.0,029.4,022.6,17.6,0000.0,0003.97,0007.72,0003.68
2024-02-07 08:26:00,SystemResetWarning,0815.7,5.01,000.00,020.9,020.2,000.0,029.4,022.6,17.6,0000.0,0003.93,0007.47,0003.65
2024-02-07 08:27:00,SystemResetWarning,0815.6,5.01,000.00,020.9,020.2,000.0,029.4,022.6,17.6,0000.0,0003.88,0007.38,0003.63
2024-02-07 08:28:00,SystemResetWarning,0815.6,4.99,000.00,020.9,020.2,000.0,029.4,022.6,17.5,0000.0,0003.87,0007.32,0003.63
2024-02-07 08:29:00,SystemResetWarning,0815.7,4.99,000.00,020.9,020.1,000.0,029.3,022.6,17.5,0000.0,0003.94,0007.38,0003.69
2024-02-07 08:30:00,SystemResetWarning,0815.6,5.01,000.00,020.9,020.1,000.0,029.3,022.6,17.4,0000.0,0003.97,0007.00,0003.75
2024-02-07 08:31:00,SystemResetWarning,0815.6,5.01,000.00,020.9,020.1,000.0,029.3,022.6,17.4,0000.0,0004.01,0005.95,0003.78
2024-02-07 08:32:00,SystemResetWarning,0815.7,4.99,000.00,020.9,020.1,000.0,029.3,022.6,17.4,0000.0,0004.01,0005.86,0003.79
2024-02-07 08:33:00,SystemResetWarning,0815.8,4.99,000.00,020.9,020.1,000.0,029.3,022.6,17.4,0000.0,0003.96,0005.67,0003.76
2024-02-07 08:34:00,SystemResetWarning,0815.8,5.01,000.00,020.9,020.1,000.0,029.3,022.5,17.4,0000.0,0003.94,0005.74,0003.73
2024-02-07 08:35:00,SystemResetWarning,0815.8,5.00,000.00,020.8,020.1,000.0,029.3,022.5,17.4,0000.0,0003.91,0005.71,0003.70
2024-02-07 08:36:00,SystemResetWarning,0815.8,5.00,000.00,020.8,020.1,000.0,029.3,022.5,17.4,0000.0,0003.89,0005.55,0003.66
2024-02-07 08:37:00,SystemResetWarning,0815.8,5.00,000.00,020.8,020.1,000.0,029.3,022.5,17.4,0000.0,0003.85,0005.33,0003.62
2024-02-07 08:38:00,SystemResetWarning,0815.8,5.01,000.00,020.8,020.1,000.0,029.3,022.5,17.4,0000.0,0003.80,0005.19,0003.57
2024-02-07 08:39:00,SystemResetWarning,0815.7,5.00,000.00,020.8,020.0,000.0,029.2,022.5,17.4,0000.0,0003.74,0005.09,0003.51
2024-02-07 08:40:00,SystemResetWarning,0815.6,4.99,000.00,020.8,020.0,000.0,029.2,022.5,17.4,0000.0,0003.67,0004.93,0003.44
2024-02-07 08:41:00,SystemResetWarning,0815.6,4.99,000.00,020.8,020.0,000.0,029.2,022.5,17.4,0000.0,0003.60,0004.77,0003.39
2024-02-07 08:42:00,SystemResetWarning,0815.6,5.00,000.00,020.8,020.0,000.0,029.2,022.5,17.4,0000.0,0003.55,0004.65,0003.35
2024-02-07 08:43:00,SystemResetWarning,0815.6,5.02,000.00,020.7,020.0,000.0,029.2,022.5,17.3,0000.0,0003.51,0004.54,0003.32
2024-02-07 08:44:00,SystemResetWarning,0815.6,5.01,000.00,020.7,020.0,000.0,029.2,022.4,17.3,0000.0,0003.51,0004.60,0003.32
2024-02-07 08:45:00,SystemResetWarning,0815.6,4.98,000.00,020.7,020.0,000.0,029.2,022.4,17.4,0000.0,0003.55,0005.50,0003.34
2024-02-07 08:46:00,SystemResetWarning,0815.6,5.00,000.00,020.7,020.0,000.0,029.2,022.4,17.4,0000.0,0003.55,0005.44,0003.34
2024-02-07 08:47:00,SystemResetWarning,0815.6,5.01,000.00,020.7,020.0,000.0,029.2,022.4,17.4,0000.0,0003.54,0005.39,0003.35
2024-02-07 08:48:00,SystemResetWarning,0815.6,5.00,000.00,020.7,020.0,000.0,029.2,022.4,17.4,0000.0,0003.55,0005.41,0003.37
2024-02-07 08:49:00,SystemResetWarning,0815.6,4.98,000.00,020.7,020.0,000.0,029.1,022.4,17.4,0000.0,0003.59,0005.50,0003.40
2024-02-07 08:50:00,SystemResetWarning,0815.6,5.00,000.00,020.7,019.9,000.0,029.1,022.4,17.4,0000.0,0003.60,0005.61,0003.42
2024-02-07 08:51:00,SystemResetWarning,0815.6,5.01,000.00,020.7,019.9,000.0,029.1,022.4,17.4,0000.0,0003.62,0006.05,0003.43
2024-02-07 08:52:00,SystemResetWarning,0815.7,5.00,000.00,020.7,019.9,000.0,029.1,022.4,17.4,0000.0,0003.61,0006.85,0003.42
2024-02-07 08:53:00,SystemResetWarning,0815.7,4.99,000.00,020.7,019.9,000.0,029.1,022.4,17.3,0000.0,0003.61,0007.36,0003.43
2024-02-07 08:54:00,SystemResetWarning,0815.7,5.00,000.00,020.6,019.9,000.0,029.1,022.3,17.3,0000.0,0003.63,0007.48,0003.44
2024-02-07 08:55:00,SystemResetWarning,0815.6,5.02,000.00,020.6,019.9,000.0,029.1,022.3,17.4,0000.0,0003.65,0007.64,0003.46
2024-02-07 08:56:00,SystemResetWarning,0815.6,5.01,000.00,020.6,019.9,000.0,029.1,022.3,17.3,0000.0,0003.63,0007.09,0003.46
2024-02-07 08:57:00,SystemResetWarning,0815.6,4.99,000.00,020.6,019.9,000.0,029.1,022.3,17.3,0000.0,0003.65,0007.32,0003.47
2024-02-07 08:58:00,SystemResetWarning,0815.6,4.99,000.00,020.6,019.8,000.0,029.1,022.3,17.3,0000.0,0003.66,0008.29,0003.48
2024-02-07 08:59:00,SystemResetWarning,0815.7,5.00,000.00,020.6,019.8,000.0,029.0,022.3,17.4,0000.0,0003.67,0008.61,0003.49
